Location: La Comballaz
(46.3780°N, 7.0817°E)
Time: 19:00:25
(UTC+00:00)

N. Korean satellite - Pass Details

Date: 12 December 2021
Orbit: 446 x 492 km, 97.3° (Epoch: 18 January)

Event Time Altitude Azimuth Distance (km) Brightness Sun altitude
Rises 05:37:32 0° 0° (N) 2,461 10.0 -14.5°
Enters shadow 05:39:29 - 349° (N) 1,700 9.0 -14.2°
Exits shadow 05:44:39 14° 244° (WSW) 1,341 8.4 -13.3°
Drops below altitude 10° 05:45:22 10° 236° (SW) 1,579 8.8 -13.2°
Sets 05:47:32 0° 222° (SW) 2,412 9.9 -12.9°
